Weather History for KACK - March, 2014

Change the Weather History Date:

Sunday, March 30, 2014

  Actual Average Record
Temperature  
Mean Temperature 47 °F -  
Max Temperature 57 °F 47 °F 62 °F (1997)
Min Temperature 39 °F 34 °F 25 °F (1958)
Degree Days  
Heating Degree Days 18    
Moisture  
Dew Point 44 °F    
Average Humidity 96    
Maximum Humidity 100    
Minimum Humidity 89    
Precipitation  
Precipitation 0.75 in - - ()
Sea Level Pressure  
Sea Level Pressure 29.67 in    
Wind  
Wind Speed 17 mph (SE)    
Max Wind Speed 25 mph    
Max Gust Speed 33 mph    
Visibility 2 miles    
Events Fog , Rain    
Averages and records for this station are not official NWS values.
T = Trace of Precipitation, MM = Missing Value Source: NWS Daily Summary

Daily Weather History Graph

Daily Weather History Graph

Search for Another Location

Airport or City:

Trip Planner

Search our weather history database for the weather conditions in past years. The results will help you decide how hot, cold, wet, or windy it might be!

Date:

Astronomy

Mar. 30, 2014 Rise Set
Actual Time 6:26 AM EDT 7:03 PM EDT
Civil Twilight 5:59 AM EDT 7:30 PM EDT
Nautical Twilight 5:26 AM EDT 8:03 PM EDT
Astronomical Twilight 4:52 AM EDT 8:37 PM EDT
Moon 6:10 AM EDT (3/30) 7:12 PM EDT (3/30)
Length of Visible Light 13h 31m
Length of Day
12h 36m
Waning Crescent, 0% of the Moon is Illuminated
Mar 30
Waning Crescent
Mar 30
New
Apr 7
First Quarter
Apr 15
Full
Apr 22
Last Quarter

Hourly Weather History & Observations

Time (EDT) Temp. Windchill Dew Point Humidity Pressure Visibility Wind Dir Wind Speed Gust Speed Precip Events Conditions
12:05 AM 46.4 °F 40.1 °F 44.6 °F 93% 29.92 in 1.0 mi SE 15.0 mph 21.9 mph 0.01 in Rain Light Rain
12:12 AM 44.6 °F 37.4 °F 44.6 °F 100% 29.92 in 1.2 mi SE 16.1 mph - 0.01 in Rain Light Rain
12:19 AM 44.6 °F 38.1 °F 44.6 °F 100% 29.91 in 1.2 mi SE 13.8 mph - 0.01 in Rain Light Rain
12:34 AM 44.6 °F 37.8 °F 44.6 °F 100% 29.90 in 3.0 mi SE 15.0 mph - 0.01 in Rain Light Rain
12:53 AM 45.0 °F 38.2 °F 44.1 °F 97% 29.90 in 4.0 mi SE 15.0 mph - 0.01 in Rain Light Rain
1:46 AM 44.6 °F 37.4 °F 44.6 °F 100% 29.86 in 2.0 mi SE 16.1 mph - 0.01 in Rain Light Rain
1:49 AM 44.6 °F 37.2 °F 44.6 °F 100% 29.86 in 1.8 mi SE 17.3 mph - 0.01 in Rain Light Rain
1:53 AM 45.0 °F 37.9 °F 44.1 °F 97% 29.86 in 1.2 mi SE 16.1 mph - 0.02 in Rain Light Rain
2:02 AM 46.4 °F 39.5 °F 44.6 °F 93% 29.84 in 0.8 mi SE 17.3 mph - 0.00 in Rain Light Rain
2:09 AM 46.4 °F 39.2 °F 44.6 °F 93% 29.83 in 0.8 mi SE 18.4 mph - 0.01 in Rain Light Rain
2:19 AM 46.4 °F 39.2 °F 44.6 °F 93% 29.82 in 0.8 mi SE 18.4 mph - 0.02 in Rain Light Rain
2:34 AM 46.4 °F 39.0 °F 44.6 °F 93% 29.81 in 0.8 mi SE 19.6 mph - 0.02 in Rain Light Rain
2:53 AM 46.0 °F 38.3 °F 45.0 °F 96% 29.81 in 0.5 mi SE 20.7 mph 27.6 mph 0.03 in Fog , Rain Light Rain
3:53 AM 46.0 °F 38.5 °F 45.0 °F 96% 29.77 in 0.5 mi SE 19.6 mph - 0.01 in Fog , Rain Light Rain
4:21 AM 46.4 °F 39.2 °F 46.4 °F 100% 29.76 in 0.8 mi SE 18.4 mph - 0.04 in Rain Rain
4:24 AM 46.4 °F 39.2 °F 46.4 °F 100% 29.76 in 1.0 mi SE 18.4 mph - 0.04 in Rain Rain
4:49 AM 46.4 °F 39.8 °F 44.6 °F 93% 29.75 in 0.8 mi SE 16.1 mph - 0.08 in Rain Rain
4:53 AM 46.0 °F 39.0 °F 45.0 °F 96% 29.75 in 0.8 mi SE 17.3 mph - 0.09 in Rain Rain
5:02 AM 46.4 °F 39.5 °F 44.6 °F 93% 29.75 in 0.8 mi SE 17.3 mph - 0.02 in Rain Rain
5:10 AM 46.4 °F 39.2 °F 44.6 °F 93% 29.74 in 1.0 mi SE 18.4 mph - 0.05 in Rain Rain
5:22 AM 46.4 °F 39.8 °F 44.6 °F 93% 29.73 in 1.0 mi SE 16.1 mph - 0.09 in Rain Rain
5:46 AM 48.2 °F - 46.4 °F 93% 29.72 in 1.0 mi ESE 16.1 mph - 0.15 in Rain Light Rain
5:53 AM 48.0 °F - 46.9 °F 96% 29.71 in 0.8 mi ESE 17.3 mph - 0.16 in Rain Light Rain
6:53 AM 46.9 °F - 46.0 °F 97% 29.67 in 0.2 mi SE 20.7 mph - 0.10 in Fog , Rain Light Rain
7:08 AM 46.4 °F 38.7 °F 46.4 °F 100% 29.66 in 0.2 mi SE 20.7 mph - 0.01 in Fog , Rain Light Rain
7:53 AM 46.9 °F - 46.0 °F 97% 29.65 in 0.2 mi SSE 21.9 mph 31.1 mph 0.04 in Fog Fog
8:06 AM 48.2 °F - 48.2 °F 100% 29.65 in 0.2 mi SSE 21.9 mph 31.1 mph 0.00 in Fog , Rain Light Rain
8:22 AM 46.4 °F 38.3 °F 46.4 °F 100% 29.64 in 0.2 mi SSE 23.0 mph 28.8 mph 0.01 in Fog , Rain Light Rain
8:31 AM 48.2 °F - 46.4 °F 93% 29.64 in 0.2 mi SSE 21.9 mph 29.9 mph 0.02 in Fog , Rain Rain
8:53 AM 48.0 °F - 46.9 °F 96% 29.63 in 0.5 mi SSE 21.9 mph 32.2 mph 0.06 in Fog , Rain Light Rain
9:53 AM 48.0 °F - 48.0 °F 100% 29.61 in 0.2 mi SSE 20.7 mph - 0.04 in Fog , Rain Light Rain
10:00 AM 46.4 °F 39.0 °F 46.4 °F 100% 29.61 in 0.2 mi SSE 19.6 mph 28.8 mph 0.00 in Fog Fog
10:53 AM 48.0 °F - 46.9 °F 96% 29.59 in 0.2 mi SE 19.6 mph 27.6 mph 0.00 in Fog Fog
11:03 AM 48.2 °F - 46.4 °F 93% 29.59 in 0.2 mi SSE 17.3 mph - N/A Fog Fog
11:18 AM 48.2 °F - 48.2 °F 100% 29.59 in 0.2 mi SSE 13.8 mph 25.3 mph N/A Fog Fog
11:50 AM 51.8 °F - 51.8 °F 100% 29.56 in 0.2 mi SSW 6.9 mph - N/A Fog Fog
11:53 AM 53.1 °F - 53.1 °F 100% 29.55 in 7.0 mi South 5.8 mph - N/A   Overcast
12:01 PM 55.4 °F - 55.4 °F 100% 29.55 in 9.0 mi South 15.0 mph 21.9 mph N/A   Mostly Cloudy
12:12 PM 53.6 °F - 53.6 °F 100% 29.52 in 8.0 mi SSE 13.8 mph 28.8 mph N/A   Scattered Clouds
12:53 PM 52.0 °F - 50.0 °F 93% 29.49 in 7.0 mi SE 18.4 mph 28.8 mph N/A   Clear
1:53 PM 52.0 °F - 48.9 °F 89% 29.52 in 1.0 mi SE 13.8 mph - N/A   Overcast
2:53 PM 55.0 °F - 52.0 °F 89% 29.52 in 1.0 mi SE 5.8 mph - N/A   Overcast
3:53 PM 43.0 °F 35.7 °F 39.9 °F 89% 29.53 in 1.0 mi North 15.0 mph - 0.00 in Rain Light Rain
4:53 PM 41.0 °F 32.8 °F 39.0 °F 93% 29.52 in 1.5 mi NNW 16.1 mph 27.6 mph 0.00 in   Overcast
5:53 PM 39.9 °F 31.1 °F 37.9 °F 93% 29.54 in 1.5 mi North 17.3 mph - 0.01 in Rain Light Rain
6:53 PM 39.9 °F 30.8 °F 37.9 °F 93% 29.53 in 1.0 mi North 18.4 mph 28.8 mph 0.00 in   Overcast
7:53 PM 39.9 °F 30.5 °F 37.9 °F 93% 29.55 in 1.5 mi North 19.6 mph - N/A   Overcast
8:19 PM 39.2 °F 28.7 °F 39.2 °F 100% 29.55 in 2.0 mi North 23.0 mph 29.9 mph 0.00 in Rain Light Rain
8:53 PM 39.9 °F 30.2 °F 37.9 °F 93% 29.55 in 2.5 mi North 20.7 mph 27.6 mph 0.00 in Rain Light Rain
9:05 PM 39.2 °F 29.6 °F 37.4 °F 93% 29.55 in 3.0 mi North 19.6 mph - 0.00 in Rain Light Rain
9:53 PM 39.0 °F 28.5 °F 37.9 °F 96% 29.57 in 2.5 mi North 23.0 mph 32.2 mph 0.08 in Rain Heavy Rain
10:03 PM 39.2 °F - 37.4 °F 93% 29.56 in - North - - 0.00 in   Unknown
10:27 PM 39.2 °F 28.7 °F 37.4 °F 93% 29.58 in 2.5 mi North 23.0 mph 33.4 mph 0.04 in Rain Rain
10:34 PM 39.2 °F 28.3 °F 37.4 °F 93% 29.58 in 4.0 mi North 25.3 mph - 0.05 in Rain Rain
10:54 PM 39.0 °F 29.0 °F 37.9 °F 96% 29.59 in 3.0 mi North 20.7 mph 31.1 mph 0.08 in Rain Rain
11:20 PM 39.2 °F 28.5 °F 37.4 °F 93% 29.58 in 5.0 mi North 24.2 mph - 0.02 in Rain Light Rain
11:36 PM 39.2 °F 29.3 °F 37.4 °F 93% 29.58 in 7.0 mi North 20.7 mph 31.1 mph 0.02 in Rain Light Rain
11:53 PM 39.0 °F 28.0 °F 37.0 °F 93% 29.58 in 7.0 mi North 25.3 mph 32.2 mph 0.02 in   Overcast